Voltar ao catálogo

SL-8 DEB

AtivoLEO
NORAD 4084·DEBRIS·🇷🇺 Russia

Lançado Aug 13, 1969 de Plesetsk Cosmodrome

Loading…

Próximas Passagens (próximas 24 horas)

TLE

AtualizadoSource: Space-Track

Época: Sep 14, 2026, 03:22 UTC

1 04084U 69070C   26257.14055300  .00000091  00000-0  32197-4 0  9994
2 04084  74.0684 149.7330 0021207  15.1765 345.0025 14.47085358  8643

Acompanhe SL-8 DEB em tempo real com AllMySat

Download on the App Store